Time,TemperatureF,DewpointF,PressureIn,WindDirection,WindDirectionDegrees,WindSpeedMPH,WindSpeedGustMPH,Humidity,HourlyPrecipIn,Conditions,Clouds,dailyrainin,SoftwareType,DateUTC
2013-04-17 00:00:00,26.4,25.0,25.85,ENE,58,9.0,11.0,96,0.00,,,0.00,weatherlink.com 1.10,2013-04-17 06:00:00,
2013-04-17 00:15:00,26.3,25.0,25.84,ENE,70,9.0,12.0,96,0.00,,,0.00,weatherlink.com 1.10,2013-04-17 06:15:00,
2013-04-17 00:30:00,26.2,25.0,25.85,NE,50,11.0,12.0,96,0.00,,,0.00,weatherlink.com 1.10,2013-04-17 06:30:00,
2013-04-17 00:45:00,26.2,25.0,25.86,ENE,67,7.0,10.0,96,0.00,,,0.00,weatherlink.com 1.10,2013-04-17 06:45:00,
2013-04-17 01:00:00,26.1,25.0,25.86,ENE,77,10.0,13.0,96,0.00,,,0.00,weatherlink.com 1.10,2013-04-17 07:00:00,
2013-04-17 01:15:00,26.1,25.0,25.84,ENE,60,12.0,15.0,96,0.00,,,0.00,weatherlink.com 1.10,2013-04-17 07:15:00,
2013-04-17 01:30:00,26.0,25.0,25.84,ENE,73,11.0,14.0,96,0.00,,,0.00,weatherlink.com 1.10,2013-04-17 07:30:00,
2013-04-17 01:46:00,26.0,25.0,25.84,ENE,60,12.0,13.0,96,0.00,,,0.00,weatherlink.com 1.10,2013-04-17 07:46:00,
2013-04-17 02:01:00,25.9,25.0,25.83,ENE,63,15.0,16.0,96,0.00,,,0.00,weatherlink.com 1.10,2013-04-17 08:01:00,
2013-04-17 02:16:00,25.7,25.0,25.82,ENE,68,16.0,17.0,96,0.00,,,0.00,weatherlink.com 1.10,2013-04-17 08:16:00,
2013-04-17 02:31:00,25.6,25.0,25.82,ENE,61,13.0,15.0,96,0.00,,,0.00,weatherlink.com 1.10,2013-04-17 08:31:00,
2013-04-17 02:46:00,25.6,25.0,25.82,ENE,70,11.0,13.0,96,0.00,,,0.00,weatherlink.com 1.10,2013-04-17 08:46:00,
2013-04-17 03:01:00,25.7,25.0,25.82,ENE,68,11.0,12.0,96,0.00,,,0.00,weatherlink.com 1.10,2013-04-17 09:01:00,
2013-04-17 03:16:00,25.5,25.0,25.82,ENE,70,10.0,14.0,96,0.00,,,0.00,weatherlink.com 1.10,2013-04-17 09:16:00,
2013-04-17 03:31:00,25.3,24.0,25.82,ENE,68,13.0,13.0,96,0.00,,,0.00,weatherlink.com 1.10,2013-04-17 09:31:00,
2013-04-17 03:46:00,25.1,24.0,25.81,ENE,68,8.0,13.0,95,0.00,,,0.00,weatherlink.com 1.10,2013-04-17 09:46:00,
2013-04-17 04:16:00,24.8,24.0,25.80,ENE,68,12.0,12.0,95,0.00,,,0.00,weatherlink.com 1.10,2013-04-17 10:16:00,
2013-04-17 04:46:00,24.8,24.0,25.80,ENE,67,11.0,13.0,96,0.00,,,0.00,weatherlink.com 1.10,2013-04-17 10:46:00,
2013-04-17 05:01:00,24.8,24.0,25.80,ENE,76,13.0,16.0,95,0.00,,,0.00,weatherlink.com 1.10,2013-04-17 11:01:00,
2013-04-17 05:16:00,24.8,24.0,25.80,ENE,68,12.0,17.0,96,0.00,,,0.00,weatherlink.com 1.10,2013-04-17 11:16:00,
2013-04-17 05:46:00,24.8,24.0,25.80,ENE,71,11.0,15.0,96,0.00,,,0.00,weatherlink.com 1.10,2013-04-17 11:46:00,
2013-04-17 06:01:00,24.7,24.0,25.80,NE,48,10.0,15.0,95,0.00,,,0.00,weatherlink.com 1.10,2013-04-17 12:01:00,
2013-04-17 06:16:00,24.6,24.0,25.81,NE,55,13.0,15.0,96,0.00,,,0.00,weatherlink.com 1.10,2013-04-17 12:16:00,
2013-04-17 06:31:00,24.5,23.0,25.81,ENE,74,11.0,15.0,95,0.00,,,0.00,weatherlink.com 1.10,2013-04-17 12:31:00,
2013-04-17 06:46:00,24.3,23.0,25.81,East,93,11.0,15.0,95,0.00,,,0.00,weatherlink.com 1.10,2013-04-17 12:46:00,
2013-04-17 07:01:00,24.1,23.0,25.81,ENE,64,11.0,16.0,95,0.00,,,0.00,weatherlink.com 1.10,2013-04-17 13:01:00,
2013-04-17 07:16:00,23.9,23.0,25.82,ENE,71,13.0,16.0,95,0.00,,,0.00,weatherlink.com 1.10,2013-04-17 13:16:00,
2013-04-17 07:31:00,23.8,23.0,25.83,ENE,61,9.0,15.0,95,0.00,,,0.00,weatherlink.com 1.10,2013-04-17 13:31:00,
2013-04-17 07:46:00,23.7,23.0,25.83,ENE,61,17.0,17.0,95,0.00,,,0.00,weatherlink.com 1.10,2013-04-17 13:46:00,
2013-04-17 08:01:00,23.6,22.0,25.83,ENE,60,15.0,18.0,95,0.00,,,0.00,weatherlink.com 1.10,2013-04-17 14:01:00,
2013-04-17 08:16:00,23.9,23.0,25.82,NNE,30,13.0,17.0,95,0.00,,,0.00,weatherlink.com 1.10,2013-04-17 14:16:00,
2013-04-17 08:31:00,24.1,23.0,25.82,NE,53,14.0,14.0,95,0.00,,,0.00,weatherlink.com 1.10,2013-04-17 14:31:00,
2013-04-17 08:46:00,24.0,23.0,25.82,ENE,65,11.0,16.0,95,0.00,,,0.00,weatherlink.com 1.10,2013-04-17 14:46:00,
2013-04-17 09:16:00,23.9,23.0,25.81,East,82,12.0,15.0,95,0.00,,,0.00,weatherlink.com 1.10,2013-04-17 15:16:00,
2013-04-17 09:31:00,24.1,23.0,25.80,NE,56,9.0,14.0,95,0.00,,,0.00,weatherlink.com 1.10,2013-04-17 15:31:00,
2013-04-17 09:46:00,24.1,23.0,25.80,NE,56,10.0,16.0,95,0.00,,,0.00,weatherlink.com 1.10,2013-04-17 15:46:00,
2013-04-17 10:16:00,24.1,23.0,25.80,NE,44,11.0,15.0,95,0.00,,,0.00,weatherlink.com 1.10,2013-04-17 16:16:00,
2013-04-17 10:31:00,24.2,23.0,25.80,NNE,15,11.0,15.0,94,0.00,,,0.00,weatherlink.com 1.10,2013-04-17 16:31:00,
2013-04-17 10:46:00,24.3,23.0,25.79,NE,40,14.0,15.0,94,0.00,,,0.00,weatherlink.com 1.10,2013-04-17 16:46:00,
2013-04-17 11:01:00,24.2,23.0,25.79,East,91,14.0,16.0,94,0.00,,,0.00,weatherlink.com 1.10,2013-04-17 17:01:00,
2013-04-17 11:17:00,24.6,23.0,25.79,NNE,23,12.0,14.0,94,0.00,,,0.00,weatherlink.com 1.10,2013-04-17 17:17:00,
2013-04-17 11:31:00,24.5,23.0,25.78,North,355,14.0,15.0,94,0.00,,,0.00,weatherlink.com 1.10,2013-04-17 17:31:00,
2013-04-17 11:46:00,24.4,23.0,25.79,NE,34,13.0,16.0,94,0.00,,,0.00,weatherlink.com 1.10,2013-04-17 17:46:00,
2013-04-17 12:01:00,24.6,23.0,25.79,North,7,10.0,15.0,94,0.00,,,0.00,weatherlink.com 1.10,2013-04-17 18:01:00,